Orbital elements of FENGYUN 1C DEB
| Launched | 9 May 1999 |
| Flight ended | – |
| Launch site | Taiyuan Space Center, PRC |
| Owner | People's Republic of China |
| NORAD ID | 31188 |
| Date fetched |
Epoch osculation |
Inc. [°] |
Ecc. | RA asc node [hr] |
Arg Peri. [°] |
Mean anom [°] |
Mean motion [rev/day] |
Abs. mag |
| Date fetched |
Epoch osculation |
Inc. [°] |
Ecc. | RA asc node [hr] |
Arg Peri. [°] |
Mean anom [°] |
Mean motion [rev/day] |
Abs. mag |
| 2026 May 05 17:57 | 2026 May 04 10:03:22 | 98.7336 | 0.00598 | 13.0992 | 195.0927 | 300.2528 | 14.24792 | – |
| 2026 May 04 17:57 | 2026 Apr 30 11:38:14 | 98.7341 | 0.00595 | 12.8383 | 206.3797 | 300.2528 | 14.24792 | – |
| 2026 May 03 17:57 | 2026 Apr 30 11:38:14 | 98.7341 | 0.00595 | 12.8383 | 206.3797 | 300.2528 | 14.24792 | – |
| 2026 May 02 17:57 | 2026 Apr 30 11:38:14 | 98.7341 | 0.00595 | 12.8383 | 206.3797 | 300.2528 | 14.24792 | – |
| 2026 May 01 17:56 | 2026 Apr 30 11:38:14 | 98.7341 | 0.00595 | 12.8383 | 206.3797 | 300.2528 | 14.24792 | – |
| 2026 Apr 30 17:56 | 2026 Apr 30 11:38:14 | 98.7341 | 0.00595 | 12.8383 | 206.3797 | 300.2528 | 14.24792 | – |
| 2026 Apr 29 17:57 | 2026 Apr 24 03:29:18 | 98.7344 | 0.00588 | 12.4177 | 224.6673 | 300.2528 | 14.24792 | – |
| 2026 Apr 28 17:56 | 2026 Apr 24 03:29:18 | 98.7344 | 0.00588 | 12.4177 | 224.6673 | 300.2528 | 14.24792 | – |
| 2026 Apr 27 17:58 | 2026 Apr 24 03:29:18 | 98.7344 | 0.00588 | 12.4177 | 224.6673 | 300.2528 | 14.24792 | – |
| 2026 Apr 26 17:58 | 2026 Apr 24 03:29:18 | 98.7344 | 0.00588 | 12.4177 | 224.6673 | 300.2528 | 14.24792 | – |
| 2026 Apr 25 17:58 | 2026 Apr 24 03:29:18 | 98.7344 | 0.00588 | 12.4177 | 224.6673 | 300.2528 | 14.24792 | – |
| 2026 Apr 24 17:59 | 2026 Apr 24 03:29:18 | 98.7344 | 0.00588 | 12.4177 | 224.6673 | 300.2528 | 14.24792 | – |
| 2026 Apr 23 17:57 | 2026 Apr 19 03:48:47 | 98.7346 | 0.00583 | 12.0870 | 239.2343 | 300.2528 | 14.24792 | – |
| 2026 Apr 22 17:57 | 2026 Apr 19 03:48:47 | 98.7346 | 0.00583 | 12.0870 | 239.2343 | 300.2528 | 14.24792 | – |
| 2026 Apr 21 17:57 | 2026 Apr 19 03:48:47 | 98.7346 | 0.00583 | 12.0870 | 239.2343 | 300.2528 | 14.24792 | – |
| 2026 Apr 20 17:57 | 2026 Apr 19 03:48:47 | 98.7346 | 0.00583 | 12.0870 | 239.2343 | 300.2528 | 14.24792 | – |
| 2026 Apr 19 17:58 | 2026 Apr 19 03:48:47 | 98.7346 | 0.00583 | 12.0870 | 239.2343 | 300.2528 | 14.24792 | – |
| 2026 Apr 18 17:56 | 2026 Apr 12 20:17:19 | 98.7346 | 0.00578 | 11.6682 | 257.7870 | 300.2528 | 14.24792 | – |
| 2026 Apr 16 17:57 | 2026 Apr 12 20:17:19 | 98.7346 | 0.00578 | 11.6682 | 257.7870 | 300.2528 | 14.24792 | – |
| 2026 Apr 14 17:57 | 2026 Apr 12 20:17:19 | 98.7346 | 0.00578 | 11.6682 | 257.7870 | 300.2528 | 14.24792 | – |
| 2026 Apr 13 17:57 | 2026 Apr 12 20:17:19 | 98.7346 | 0.00578 | 11.6682 | 257.7870 | 300.2528 | 14.24792 | – |
| 2026 Apr 12 17:57 | 2026 Apr 07 20:36:17 | 98.7343 | 0.00574 | 11.3375 | 272.5532 | 300.2528 | 14.24792 | – |
| 2026 Apr 11 17:57 | 2026 Apr 07 20:36:17 | 98.7343 | 0.00574 | 11.3375 | 272.5532 | 300.2528 | 14.24792 | – |
| 2026 Apr 10 17:58 | 2026 Apr 07 20:36:17 | 98.7343 | 0.00574 | 11.3375 | 272.5532 | 300.2528 | 14.24792 | – |
| 2026 Apr 09 18:01 | 2026 Apr 07 20:36:17 | 98.7343 | 0.00574 | 11.3375 | 272.5532 | 300.2528 | 14.24792 | – |
| 2026 Apr 08 17:57 | 2026 Apr 07 20:36:17 | 98.7343 | 0.00574 | 11.3375 | 272.5532 | 300.2528 | 14.24792 | – |